Weather in Rochester

United States     43°10′59″N   77°37′16″W
temp.,
°C
wind,
m/s
gust,
m/s
humid.,
%
clouds,
%
prec.,
mm/h
press.,
hPa
HPBL,
m
23 may, mon
mon2323:00+10wnw59845 0.0 1024256
02:00+8wnw48845 0.0 1025204
05:00+7wnw3686100 0.0 1026154
08:00+8nw4576100 0.0 1027195
11:00+9nnw3470100 0.0 1027354
14:00+9nne3376100 0.0 1027408
17:00+10nne2278100 0.0 1026321
20:00+10n1178100 0.0 102653
24 may, tue
tue2423:00+9ne1276100 0.0 102627
02:00+8ne22795 0.0 102613
05:00+8ene22885 0.0 102620
08:00+9ene34815 0.0 1026147
11:00+11ne337651 0.0 1026416
14:00+11nne4477100 0.0 1024467
17:00+12nne337748 0.0 1024221
20:00+11e2375100 0.0 102483
25 may, wed
wed2523:00+12ese2368100 0.0 102561
02:00+12ssw1180100 0.0 102530
05:00+11ene228797 0.0 102513
08:00+12e1185100 0.0 1026130
11:00+15e3472100 0.0 1026432
14:00+18ese5659100 0.0 1025547
17:00+18ese5660100 0.0 1023539
20:00+16ese5876100 0.0 1022194
26 may, thu
thu2623:00+16sse596898 0.0 1021289
02:00+14sse51063100 0.0 1020341
05:00+14s6116795 0.0 1018292
08:00+15s61183100 0.4 1017271
11:00+19ssw6108235 1.1 1016351
14:00+22wsw5870100 2.3 1014764
17:00+21sw5885100 2.9 1013434
20:00+18ssw5896100 6.0 1012148
27 may, fri
fri2723:00+18ssw61097100 3.5 1012242
02:00+17ssw5998100 4.9 1011182
05:00+16ssw4897100 0.0 1011164
08:00+16wsw2594100 0.0 1011217
11:00+15nw2493100 0.3 1011350
14:00+16n2395100 1.3 1010239
17:00+14ne3499100 3.0 1009100
20:00+12ne3699100 4.0 1010100